Starlink 11555

operational
NORAD ID: 62915 Int'l Des: 2025-027 Owner: SPXS Country: US Constellation: starlink
LEOCIRCULAR

Über Starlink 11555

Beschreibung wird geladen...

Live-Position

3D-Globus wird geladen...

Nächste Überflüge

Höhenverlauf

Altitude vs Time

uPlot chart will show altitude changes over time

Zweizeiliger Elementsatz

1 62915U 25027J 25257.33910086 .00209370 00000-0 15948-2 0 9990
2 62915 42.9993 330.9244 0001257 233.8317 126.2435 15.70833480 35457
Epoch: 14. Sept. 2025 • Age: 23 hours

Aktueller Status

Höhe 355.4 km
Geschwindigkeit 7.70 km/s
Subsatellitenpunkt 19.69°N, 114.18°W
Startdatum 8. Feb. 2025
Alter 0.5 years
Typ internet

Technische Details

Klassifizierung Payload
Masse 960.00 kg
Trockenmasse 910.00 kg
Gesamtmasse 960.00 kg
Länge 0.30 m
Durchmesser 4.10 m
Spannweite 29.00 m
Form Box + pan
Hersteller SPXS
Bus-Typ Starlink V2MD
Phasenstatus In Orbit
Besitzer/Staat SPXS/US

Große Konstellationen

Loading constellations...